EHI
0 0 0 0 0 0 0 0 0 0 1 4 8 12 11 10 15 24 30 32 32 34 43 57 66 69 69 67 62 58 49 39 35 32 25 17 10 4 3 7 10 13 14 16
0 0 0 0 0 0 0 0 0 1 2 4 7 10 8 8 15 23 30 32 32 34 44 58 69 75 76 74 69 64 54 45 39 34 26 18 12 6 3 5 9 12 14 15
0 0 0 0 0 0 0 0 0 1 2 3 5 5 5 6 12 21 30 34 33 36 46 59 72 82 84 81 78 72 62 51 43 37 31 25 20 13 7 6 7 9 11 12
0 0 0 0 0 0 0 0 0 0 1 1 2 2 2 5 10 18 28 34 34 37 46 58 71 83 87 85 83 78 69 58 47 40 36 34 30 21 12 9 7 6 8 10
0 0 0 0 0 0 0 0 0 0 0 0 0 0 1 4 9 17 25 30 33 37 44 55 68 79 86 87 85 82 75 64 54 45 40 39 35 24 15 12 9 5 6 8
0 0 0 0 0 0 0 0 0 0 0 0 0 0 1 4 10 18 24 27 31 37 44 53 64 75 83 86 87 83 77 69 61 52 44 39 34 26 19 16 13 9 8 9
0 0 0 0 0 0 0 0 0 0 0 0 0 0 1 3 9 17 23 28 31 36 45 54 63 72 81 87 88 84 78 72 66 59 49 39 34 28 23 18 15 13 12 12
0 0 0 0 0 0 0 0 0 0 0 0 0 1 2 3 7 14 22 29 33 37 45 55 64 72 80 87 89 86 79 72 67 61 51 41 34 29 23 19 17 16 15 15
0 0 0 0 0 0 0 0 0 0 0 0 0 1 3 4 7 14 22 29 34 38 44 53 61 69 78 82 84 83 78 71 66 60 51 43 37 31 25 23 21 18 16 16
0 0 0 0 0 0 0 0 0 0 0 0 1 2 3 5 9 15 20 26 32 37 42 49 57 64 69 72 75 77 75 71 66 60 54 47 41 35 29 28 26 21 16 15
0 0 0 0 0 0 0 0 0 0 0 0 1 2 4 7 12 16 19 22 28 34 39 45 51 56 59 62 68 72 73 71 67 62 58 52 46 38 33 31 27 21 16 14
0 0 0 0 0 0 0 0 0 0 0 0 1 2 5 9 15 19 21 24 29 36 40 43 46 49 53 56 62 67 71 71 69 65 58 52 47 40 35 32 26 19 15 13
0 0 0 0 0 0 0 0 0 0 0 0 1 4 7 11 16 21 26 31 36 40 43 44 45 48 52 54 57 60 66 70 70 65 57 50 45 42 37 32 24 18 14 12
0 0 0 0 0 0 0 0 0 0 0 0 1 5 9 13 18 24 29 34 40 42 44 44 46 48 52 54 54 55 60 66 67 64 56 49 44 41 37 30 22 15 12 11
0 0 0 0 0 0 0 0 0 0 0 0 1 4 9 15 22 28 32 37 42 44 43 43 42 44 48 52 53 53 56 62 65 64 57 49 43 38 33 27 20 13 10 9
0 0 0 0 0 0 0 0 0 0 0 1 2 5 11 19 26 30 34 39 44 45 44 41 38 36 40 46 49 51 54 58 63 62 57 49 43 38 32 26 21 17 13 11
0 0 0 0 0 0 0 0 0 0 1 2 4 8 17 25 28 30 33 38 43 45 43 39 35 33 34 38 43 45 49 54 57 58 55 51 46 40 34 29 26 24 21 18
0 0 0 0 0 0 0 1 1 1 3 4 6 12 21 29 31 32 33 36 40 42 40 37 35 36 36 37 40 43 45 49 51 51 51 51 48 42 37 33 32 30 26 22
0 0 0 0 0 0 1 2 3 3 5 6 9 14 20 26 32 34 34 35 36 36 35 34 35 39 41 40 41 44 46 46 46 45 46 47 45 42 37 34 32 30 25 21
0 0 0 0 0 0 1 3 4 4 5 7 9 14 17 21 27 30 31 33 33 33 34 33 34 38 40 40 41 44 44 43 41 40 41 41 41 39 35 31 27 24 22 19
0 0 0 0 0 0 1 3 3 4 6 8 10 12 15 19 22 24 26 28 30 31 32 31 31 33 34 35 39 40 39 38 36 36 37 38 37 35 31 25 21 20 18 16
0 0 0 0 0 0 1 1 1 4 8 11 13 15 16 18 19 19 19 20 21 22 24 24 24 25 25 28 33 35 33 31 30 30 32 33 33 30 25 21 19 18 17 15
0 1 1 0 0 1 1 1 2 4 8 12 16 17 16 16 15 14 12 12 12 14 15 16 17 18 17 19 23 25 26 24 23 23 24 26 26 22 18 16 15 15 15 14
1 1 1 1 1 2 4 4 4 6 9 13 16 16 14 13 12 12 10 8 8 9 10 11 13 14 12 12 13 16 18 18 16 16 16 17 18 15 12 10 10 10 10 8
0 1 1 0 1 3 5 6 5 8 11 13 14 13 12 12 12 12 10 8 7 7 6 7 9 10 8 7 8 10 11 11 11 10 10 10 11 10 8 6 5 5 5 4
0 0 0 0 1 2 4 4 6 9 11 10 9 10 11 11 12 11 10 8 6 5 4 5 6 6 6 5 5 6 6 6 7 8 9 8 7 8 7 5 4 3 3 3
Wind_Speed
2 3 4 8 7 6 4 4 6 7 5 5 9 11 12 12 12 13 12 12 12 13 11 11 12 12 12 10 10 9 9 7 6 4 3 3 3 2 2 3 4 4 4 4
2 5 10 7 5 5 6 6 6 6 2 4 7 7 8 10 13 14 14 14 13 10 10 11 12 12 13 12 11 10 10 9 7 5 4 3 3 3 3 3 3 4 4 4
7 8 6 7 7 6 7 5 5 4 3 4 7 1 3 5 5 8 11 12 12 14 14 14 14 13 13 13 13 12 11 9 8 7 4 3 2 1 1 2 2 3 5 5
7 9 6 6 8 7 7 6 4 2 3 1 4 4 7 6 6 9 11 12 12 12 12 13 13 13 15 14 12 11 11 10 8 8 6 6 5 4 4 3 3 3 4 4
7 6 6 8 9 6 7 5 2 2 3 1 1 4 7 3 6 10 12 13 13 14 14 14 15 15 14 13 12 11 10 9 9 8 8 7 5 4 3 3 4 4 4 4
8 6 6 8 7 6 4 2 5 6 6 0 4 4 6 6 12 12 12 13 14 14 14 13 13 11 10 11 11 11 10 10 9 9 8 8 7 5 5 4 5 4 3 3
5 7 5 3 3 2 3 6 4 5 4 5 4 3 9 10 12 15 15 14 13 13 12 12 12 12 12 13 13 12 12 11 10 10 8 8 8 7 7 6 6 5 3 3
4 6 5 4 7 5 4 10 9 5 4 4 2 4 9 8 9 10 11 11 11 11 11 12 14 14 13 14 13 12 13 11 10 10 9 7 7 6 5 6 5 5 4 4
5 6 5 4 5 8 5 5 9 8 2 0 4 5 6 2 2 5 6 8 9 10 11 12 12 12 12 13 13 13 13 11 11 10 9 7 7 6 6 5 5 4 4 4
5 4 5 3 3 2 7 7 6 6 4 2 4 3 3 3 2 3 5 7 8 8 8 9 9 10 10 10 10 11 11 12 10 10 9 8 7 7 6 4 5 5 5 4
5 3 5 1 4 5 3 4 6 5 6 6 2 6 5 6 5 5 5 6 8 9 9 8 8 8 8 8 9 9 9 9 9 10 9 8 7 6 5 5 5 5 4 4
4 5 2 5 5 6 6 6 8 6 3 5 4 7 6 2 3 5 6 5 7 8 7 8 7 6 6 6 7 8 9 9 10 9 8 8 6 6 6 6 5 4 4 4
5 6 2 5 5 2 2 3 6 7 5 4 4 6 4 3 5 5 7 6 7 7 7 6 6 6 5 5 5 6 8 9 9 8 8 7 6 6 6 6 4 4 4 3
7 6 6 7 6 3 1 1 3 6 4 4 5 5 3 2 4 4 6 7 7 7 7 5 4 4 4 4 5 5 6 7 8 8 8 7 7 7 6 5 4 4 3 3
7 4 2 2 2 1 2 3 3 4 7 7 6 5 5 4 4 5 6 7 8 8 7 5 3 3 3 3 4 5 6 6 8 8 8 7 6 5 5 4 4 4 3 3
5 5 3 2 2 2 2 3 3 4 4 5 5 2 2 3 5 6 6 7 7 6 5 5 4 3 3 4 4 4 5 6 7 7 7 6 5 5 5 5 4 4 4 3
3 5 4 1 3 4 3 4 3 2 2 6 5 4 5 6 7 5 5 6 6 5 4 4 2 2 2 3 4 5 5 5 6 6 6 6 6 5 5 5 4 4 4 4
6 5 4 2 3 1 7 4 1 3 1 3 6 6 6 8 6 5 5 6 6 5 5 4 3 3 2 2 3 4 5 6 5 5 5 5 5 5 5 5 4 4 4 4
6 7 5 4 1 3 4 3 1 4 3 2 7 7 7 8 8 6 5 6 5 4 4 3 3 3 2 3 3 5 5 5 5 5 5 5 5 5 5 4 4 4 5 5
6 7 6 4 3 3 5 5 1 6 2 2 5 7 6 6 6 0 2 5 6 6 5 4 4 5 4 3 4 5 4 4 4 4 5 5 5 5 5 5 4 4 5 5
4 4 4 4 2 4 5 6 3 4 5 2 4 6 5 5 5 4 4 6 6 6 6 6 6 5 4 3 4 5 3 2 2 3 4 4 4 5 5 5 5 5 5 6
5 4 4 4 3 5 5 2 2 4 3 3 5 6 8 8 7 6 6 6 6 6 7 6 6 5 4 4 5 5 3 1 2 4 4 5 4 4 5 6 5 6 6 6
3 6 6 6 6 5 1 3 3 5 6 4 5 6 9 9 7 6 5 5 5 4 4 4 4 4 3 3 4 5 2 2 4 6 6 6 7 6 6 6 5 5 5 5
3 1 4 3 0 1 4 6 6 6 6 5 7 7 8 9 7 6 5 4 4 4 3 3 4 5 4 3 4 4 3 4 6 6 6 7 8 7 7 5 5 4 4 4
2 2 3 2 1 4 5 5 6 7 8 8 8 7 7 8 7 6 5 4 4 3 3 3 4 5 4 4 4 4 4 5 7 7 6 7 7 7 8 7 6 5 4 3
1 2 4 3 4 3 2 1 4 8 7 7 7 6 5 6 6 6 5 4 4 4 3 4 5 5 4 4 4 4 4 6 7 7 6 5 6 6 6 7 8 12 9 9
Wind_Direction
199 102 215 223 203 207 240 270 273 264 246 150 159 163 174 178 178 176 176 179 184 186 180 172 170 169 166 166 166 167 166 170 160 151 152 149 163 172 173 180 176 174 174 163
41 244 231 228 242 249 258 265 277 294 301 131 147 165 184 182 186 183 181 184 187 180 170 173 173 172 173 173 173 171 174 173 172 169 164 163 162 175 180 183 182 182 178 176
199 237 227 226 250 255 260 233 239 248 353 71 110 47 232 216 198 187 186 184 181 180 177 179 180 180 177 179 179 179 178 176 176 170 153 146 124 123 154 185 197 203 193 190
237 246 242 232 241 223 255 248 225 184 100 277 131 175 257 221 206 201 194 189 185 184 180 181 182 183 185 185 181 177 176 176 176 171 168 169 175 186 200 187 191 208 206 200
245 228 217 228 235 212 229 246 219 147 120 67 25 142 260 205 205 214 202 193 190 189 186 187 189 188 187 183 181 178 175 178 178 178 178 179 185 190 188 179 188 203 211 209
248 258 215 218 231 214 217 22 28 51 72 44 236 157 251 214 203 203 201 194 193 189 188 191 190 181 180 179 180 178 177 183 182 182 183 186 187 186 181 192 197 206 215 220
281 277 260 217 216 289 108 88 40 9 18 250 245 174 235 231 207 196 194 194 191 182 180 181 181 179 181 182 182 180 181 187 187 186 189 190 191 189 191 194 198 199 209 220
215 270 249 206 176 181 168 135 151 176 206 273 305 221 247 235 213 192 186 180 179 176 180 182 185 184 183 184 182 180 183 187 187 190 195 193 192 192 195 195 195 199 206 213
190 247 269 219 172 148 149 157 161 133 163 246 283 283 311 340 152 166 165 167 174 178 181 180 178 177 178 181 184 184 183 183 185 189 190 192 193 193 197 197 195 199 206 212
176 232 274 242 115 131 153 152 101 113 142 237 296 288 254 262 199 168 160 172 174 169 166 166 165 167 174 179 183 182 184 187 186 187 191 197 198 197 193 189 198 205 210 208
164 170 302 5 162 186 139 118 112 124 151 153 228 276 240 211 186 168 162 158 157 157 162 159 163 170 170 163 173 177 183 183 184 187 190 195 194 193 189 196 205 208 209 202
160 130 243 254 234 178 158 165 141 145 201 156 158 265 281 203 149 131 130 136 138 137 142 148 154 153 154 164 171 175 181 185 187 187 186 191 189 187 192 202 208 202 204 202
138 114 73 346 341 11 122 160 148 136 128 141 150 257 307 39 72 92 105 104 109 116 116 119 128 144 157 169 175 177 183 185 182 180 180 184 188 190 195 201 200 192 188 186
114 107 146 182 209 210 229 257 145 126 146 184 197 216 299 16 86 84 101 102 98 100 108 111 124 139 154 168 173 175 183 177 173 172 176 183 190 190 190 186 181 178 172 169
101 117 145 188 197 150 221 243 208 163 178 179 208 196 216 200 142 119 105 97 93 95 100 109 128 150 157 157 162 172 174 169 167 166 176 187 186 174 166 169 170 166 165 167
80 115 95 10 12 23 331 278 225 199 174 168 150 196 219 131 103 90 88 93 93 97 109 115 118 121 148 151 154 157 154 156 156 163 177 179 173 167 165 169 163 156 153 150
76 99 90 348 339 37 316 264 222 222 185 158 167 186 137 103 94 107 103 90 90 88 88 86 98 114 129 139 140 149 152 143 151 164 170 173 173 172 171 167 155 156 156 140
115 94 104 82 48 207 250 280 114 119 48 122 130 141 133 123 113 92 92 92 81 77 74 65 56 57 75 98 114 129 128 129 150 166 167 163 160 161 160 156 157 157 147 136
124 119 103 104 125 278 301 329 35 105 36 63 124 128 123 121 85 48 44 73 87 88 80 74 71 76 76 93 106 118 128 139 152 161 163 161 158 152 151 153 152 143 130 124
75 98 106 111 131 217 257 285 290 98 66 333 125 136 140 109 97 122 35 67 70 69 63 57 54 68 74 74 90 103 119 127 149 163 165 160 152 151 155 150 140 127 122 123
64 67 111 134 172 260 269 293 37 115 202 230 132 136 121 107 146 153 104 75 76 77 65 59 57 58 57 61 80 84 88 116 162 144 137 134 142 151 144 131 120 113 114 108
157 146 164 142 163 250 291 6 112 189 178 130 98 100 102 105 103 96 91 85 76 71 66 62 62 51 41 46 69 66 49 36 84 100 106 108 113 126 121 114 110 109 111 109
165 178 173 171 197 229 248 125 125 133 114 98 98 110 115 110 106 99 91 89 84 77 79 86 90 70 43 44 78 82 44 58 81 85 89 92 87 87 90 96 99 97 97 102
329 48 101 97 137 114 84 85 84 94 100 101 106 112 115 115 114 106 97 88 84 81 84 88 95 86 58 44 67 81 70 71 85 89 91 94 95 90 82 85 88 93 94 100
284 29 75 100 105 51 40 63 91 86 83 85 85 90 110 117 115 111 102 96 95 92 77 76 88 89 72 54 57 66 72 81 85 88 92 96 97 101 94 83 72 83 83 108
264 148 136 191 210 152 178 97 88 93 91 93 90 76 78 103 114 111 108 107 105 98 89 84 83 83 74 64 62 59 73 91 98 95 93 101 105 103 105 104 83 58 68 74